GEFSCGP_500_meanwind_000.txt.gz
Wind_Speed
24 24 25 26 25 24 22 20 20 22 22 20 24 24 21 20 18 19 22 23 24 24 23 26 29 31 33 35 37 36 37 43 40 30 33 29 28 31 35 37 40 44 48 51
26 26 28 27 25 23 22 20 21 22 21 21 25 25 24 23 22 21 23 25 25 26 28 30 32 33 35 36 38 37 37 39 46 48 33 34 34 39 43 42 45 48 49 54
26 29 29 27 24 22 22 21 22 22 23 24 26 24 26 26 27 27 27 28 28 29 32 34 34 35 34 34 36 38 40 41 40 42 43 48 48 52 49 49 50 50 54 59
28 30 28 27 25 22 22 23 23 24 22 19 23 18 25 26 27 27 28 29 31 32 33 34 34 33 33 34 36 39 42 45 44 50 54 54 53 54 54 54 55 59 63 67
28 29 28 27 25 23 23 23 23 24 21 22 22 18 23 26 25 25 26 27 29 30 30 31 34 35 36 37 39 42 44 47 49 51 53 55 56 57 58 60 64 67 70 74
28 27 26 26 24 23 23 23 24 23 20 20 19 19 18 27 24 25 25 26 28 30 32 34 36 38 39 41 43 44 45 47 50 52 54 55 57 59 62 66 69 72 75 77
26 26 27 25 24 23 23 22 18 18 17 18 23 22 22 26 25 25 26 28 30 32 34 36 38 40 41 42 42 43 44 44 46 49 52 55 59 64 67 70 73 76 79 80
25 25 26 25 24 23 22 21 18 18 17 19 27 25 25 24 25 26 27 29 31 32 33 34 35 36 37 37 37 39 41 43 46 51 56 61 65 69 72 75 78 81 82 83
26 25 28 25 24 24 24 24 22 22 23 23 24 27 25 23 25 26 29 30 30 31 31 31 31 31 32 33 36 39 43 47 52 57 62 66 70 74 77 81 83 84 84 83
28 26 28 26 26 26 26 24 24 23 21 22 20 23 24 24 25 29 31 32 33 32 31 31 32 35 37 39 42 46 49 54 58 63 67 72 76 80 83 86 85 83 80 76
30 29 29 28 28 25 26 26 26 24 24 22 20 23 28 31 31 34 35 36 35 34 35 36 38 40 43 45 48 51 55 60 64 69 73 77 81 85 86 85 82 75 65 54
33 33 31 32 32 29 28 27 26 26 24 26 25 27 32 34 35 38 38 38 38 38 40 41 42 44 47 49 53 57 61 66 70 75 79 82 84 85 82 73 60 49 43 42
38 37 37 40 38 32 30 29 27 27 26 28 29 29 35 38 38 41 42 41 40 41 42 43 44 46 49 53 58 62 67 71 75 78 80 79 76 68 56 46 43 41 37 35
41 42 43 40 36 30 33 30 29 29 29 29 33 37 38 40 41 44 44 42 42 43 45 45 46 49 53 58 62 66 70 73 74 73 70 64 53 44 40 38 35 30 27 27
44 45 45 44 41 36 39 36 35 35 36 36 35 40 40 41 43 45 44 42 43 45 45 45 48 52 56 61 65 68 71 69 65 61 55 48 40 34 28 23 20 20 21 23
46 46 45 45 43 41 43 43 41 39 38 37 37 41 41 42 44 43 42 42 43 44 45 46 50 55 59 63 66 67 61 50 40 34 28 24 21 18 16 17 17 19 21 21
45 46 45 46 46 44 46 45 43 40 38 37 40 42 39 41 41 41 41 42 43 43 44 48 53 58 61 62 61 53 36 24 24 24 21 19 18 17 18 22 24 26 26 26
41 42 42 45 44 44 46 43 40 38 38 38 39 40 40 40 40 42 42 42 41 42 47 52 57 60 60 55 46 30 18 19 21 17 17 20 21 23 26 28 27 26 26 27
38 40 40 40 39 41 41 38 36 37 38 38 38 38 39 39 40 41 38 38 40 44 49 54 58 57 50 41 28 15 15 16 15 15 19 23 25 26 27 28 29 29 29 29
38 39 38 36 36 35 36 34 35 36 37 36 36 37 37 37 38 39 36 37 41 46 51 55 53 44 35 22 10 9 10 11 12 17 21 24 26 28 30 32 33 34 34 33
43 42 41 41 39 38 37 36 35 35 36 35 35 35 35 36 34 33 33 37 42 46 49 46 37 27 13 3 4 5 7 9 14 19 22 25 28 30 33 35 37 39 38 36
44 40 40 43 39 34 32 32 33 34 34 34 34 33 32 31 28 29 33 38 42 44 39 30 20 8 2 4 5 6 8 12 16 20 23 26 29 32 35 38 40 38 34 31
41 35 35 33 30 31 31 31 31 31 32 31 31 29 28 25 25 30 35 38 40 36 25 16 5 4 6 8 8 8 11 15 18 21 25 29 32 35 37 40 40 36 30 29
39 31 23 19 25 29 29 27 26 28 29 28 26 23 21 23 28 33 35 37 33 22 12 3 5 8 10 9 9 11 14 17 19 23 26 30 33 37 40 41 39 33 29 29
17 21 22 21 21 22 27 28 28 26 26 24 20 19 22 26 30 33 34 29 20 10 4 7 11 11 10 9 10 14 15 18 20 22 26 30 35 39 41 41 39 32 29 30
18 22 24 26 25 25 27 27 26 24 21 18 18 21 24 28 31 31 28 18 9 7 9 13 14 11 9 10 12 13 15 17 19 23 27 31 35 39 42 41 39 34 30 32

GEFSCGP_500_meanwind_006.txt.gz
Wind_Speed
28 30 28 25 23 20 18 16 16 14 17 23 27 22 23 26 22 20 18 22 28 31 30 32 34 37 40 43 46 49 51 49 48 46 44 42 42 43 44 45 49 49 46 45
30 29 25 23 21 20 21 22 22 22 21 26 28 23 28 27 26 25 24 26 28 32 34 33 35 37 41 44 48 51 52 52 52 50 48 47 48 48 50 51 51 49 47 48
26 22 19 21 24 24 26 25 23 21 19 26 28 25 29 28 26 24 25 28 30 33 35 34 34 37 40 43 47 50 52 53 52 52 51 51 52 53 54 53 53 50 49 58
24 21 21 24 25 27 28 23 22 22 23 23 26 23 28 31 29 26 26 29 32 31 32 34 36 38 41 43 45 47 48 50 51 51 52 53 54 55 56 56 57 58 64 67
23 23 26 29 29 28 26 22 20 21 25 27 25 24 28 35 34 30 28 29 30 30 32 35 37 40 41 42 43 44 46 47 48 48 49 50 52 53 55 56 58 62 66 70
22 22 25 28 30 28 24 23 24 26 26 27 24 24 30 38 38 33 29 28 32 36 38 38 37 38 39 40 41 42 43 43 43 44 46 48 50 52 55 58 61 65 68 72
21 23 25 25 27 24 24 25 26 26 26 26 23 25 31 41 41 35 32 35 40 42 42 40 37 36 37 37 37 38 39 40 42 45 46 48 51 54 57 61 64 68 72 76
19 22 22 26 25 25 28 27 27 24 21 19 19 27 37 39 39 37 35 38 41 41 40 38 36 36 36 36 36 37 40 42 45 47 49 51 53 56 60 65 70 74 77 78
19 19 19 25 25 24 25 25 22 24 25 25 25 29 32 33 33 34 36 40 39 36 37 37 38 38 38 39 39 41 43 46 48 51 52 54 57 61 66 70 74 75 74 70
23 27 21 20 26 26 24 24 23 26 28 29 28 28 34 35 36 37 39 39 37 37 40 42 42 41 41 41 42 44 46 48 51 52 54 57 62 66 67 66 64 61 55 50
29 31 30 23 26 28 28 28 29 29 29 31 31 32 40 38 36 37 39 38 38 40 43 45 45 44 43 43 44 46 49 51 52 54 57 61 64 62 58 53 49 44 40 37
33 34 36 35 30 31 32 31 28 32 34 33 30 34 38 37 39 40 39 38 40 44 47 48 47 46 45 45 47 49 51 52 54 56 59 62 59 52 45 43 41 38 37 35
41 40 40 39 38 34 34 32 31 31 31 32 31 36 38 40 41 41 41 42 44 46 48 49 48 47 47 48 49 51 53 54 56 58 60 57 48 40 38 38 38 39 39 39
48 48 48 45 40 35 38 39 38 35 36 35 32 37 40 40 40 40 42 44 46 47 48 49 47 47 48 50 51 53 54 55 57 58 55 46 37 34 34 37 38 39 40 41
54 56 55 52 47 39 38 42 42 42 39 37 36 42 42 41 41 39 39 40 44 48 50 48 47 48 49 51 53 54 55 57 58 55 44 34 31 31 34 36 36 38 41 43
54 60 61 60 55 46 44 46 45 41 40 39 40 45 46 47 43 39 40 44 48 49 48 47 48 49 50 52 54 54 56 58 54 42 31 27 28 30 32 33 36 39 42 44
51 56 59 60 57 49 48 51 47 43 41 40 44 41 41 41 40 43 46 48 48 46 46 47 48 49 51 52 52 55 57 52 39 26 22 23 26 28 30 33 36 40 43 45
49 52 54 54 51 53 52 51 48 45 48 44 44 40 37 40 45 48 48 47 45 45 46 47 48 49 50 50 52 54 47 33 22 19 20 23 25 27 31 34 38 42 44 45
49 50 50 48 48 48 51 55 52 51 52 49 48 48 48 49 48 48 47 43 43 45 46 46 47 48 46 48 49 41 28 19 17 18 21 22 25 29 33 37 42 44 44 43
48 50 50 49 47 46 50 53 54 51 52 56 56 54 50 47 47 47 44 42 43 44 44 45 44 42 44 44 36 24 18 16 17 18 20 24 28 32 36 41 44 45 44 41
37 42 48 48 45 45 48 50 51 52 50 47 46 46 46 45 44 45 45 43 42 42 42 40 38 39 41 33 23 17 15 16 17 19 23 26 31 35 40 44 46 44 42 41
35 40 44 48 49 46 40 43 48 43 35 34 36 37 38 39 40 40 38 38 39 38 36 34 35 37 31 22 16 14 15 16 18 22 26 30 34 39 43 45 45 43 42 41
33 38 40 43 46 45 37 36 42 43 39 36 34 32 32 32 33 34 35 35 34 32 30 31 34 31 21 14 12 13 14 17 21 25 29 33 38 42 44 44 43 42 42 42
20 29 37 40 40 42 43 39 32 28 27 28 28 29 29 29 28 29 29 28 27 26 28 31 29 20 14 11 11 12 15 18 23 27 32 36 40 43 44 44 42 41 42 42
17 21 27 32 33 34 34 29 24 24 24 25 27 27 27 27 27 26 25 23 23 25 27 27 20 13 10 9 10 12 15 20 25 29 33 38 41 43 43 43 42 41 41 41
15 20 25 28 30 33 32 26 21 21 22 24 25 26 27 27 26 24 21 21 23 25 24 18 12 10 8 7 9 12 16 21 26 30 35 39 40 41 42 42 41 41 41 39

GEFSCGP_500_meanwind_012.txt.gz
Wind_Speed
34 34 29 26 27 26 25 24 21 21 18 17 17 21 24 26 27 28 30 32 34 33 34 33 32 32 34 35 37 38 39 39 40 40 39 39 38 38 37 38 38 39 40 42
37 34 27 29 30 29 28 26 24 23 19 16 16 18 23 28 31 32 34 34 33 31 31 31 31 31 33 35 37 38 39 40 40 41 41 41 41 41 41 41 42 43 45 47
36 29 30 32 32 30 28 26 25 26 24 21 19 19 24 30 34 36 36 33 29 27 27 29 30 31 32 34 37 38 38 39 40 41 42 43 43 44 44 46 47 49 51 52
33 29 32 33 32 30 27 23 25 27 30 28 26 26 28 33 37 38 35 31 27 27 29 31 32 32 32 34 36 36 37 39 41 43 44 45 46 47 48 50 52 54 55 57
28 26 30 32 30 29 26 23 24 27 31 35 35 35 34 38 40 38 35 31 30 31 33 34 34 33 33 35 35 36 38 41 44 46 47 48 50 51 52 54 56 57 59 61
26 27 30 30 30 29 25 25 26 30 32 35 35 39 42 43 41 39 37 35 34 35 36 37 37 36 36 37 37 38 41 44 47 49 50 52 53 54 55 57 59 60 61 62
26 27 28 29 31 30 29 28 30 34 37 37 32 37 42 43 43 43 42 39 38 38 40 41 41 40 41 40 40 41 44 47 50 52 53 55 55 57 58 60 61 62 62 62
27 27 25 26 27 26 28 31 32 33 34 32 32 36 36 37 39 39 39 39 39 40 42 43 42 42 43 42 42 44 46 48 52 55 56 57 57 58 60 61 62 63 62 61
26 26 25 27 25 24 26 29 29 31 31 30 32 33 34 33 33 35 36 37 36 37 38 39 39 40 41 42 44 45 46 49 53 56 57 57 59 61 63 64 64 63 62 60
27 26 25 28 30 29 29 28 29 32 33 34 36 37 37 35 34 34 35 35 35 34 35 36 37 39 41 44 46 46 48 51 55 57 59 61 63 64 66 67 67 65 60 54
35 34 28 32 33 30 29 30 31 33 35 35 35 34 32 37 39 39 40 40 40 39 38 38 39 41 43 45 46 46 49 53 56 59 63 65 66 67 67 67 64 57 49 42
40 39 36 35 37 34 31 29 30 35 37 37 37 34 32 35 38 41 43 43 43 43 42 42 42 43 44 44 43 46 50 54 58 62 66 66 66 66 65 61 52 43 38 35
43 43 42 37 35 37 38 34 31 31 33 36 40 39 37 39 41 42 43 44 45 46 45 45 45 44 41 40 42 46 51 55 61 65 66 65 64 63 58 48 39 35 34 35
49 48 47 45 41 40 42 42 40 38 39 40 42 42 40 40 41 42 43 44 46 47 48 46 43 38 37 39 43 48 54 60 64 64 63 61 60 55 46 38 35 34 35 37
54 55 54 53 50 48 46 47 46 46 46 46 44 42 41 42 43 43 43 43 45 46 43 40 35 34 37 41 47 53 59 63 62 61 59 57 53 45 39 37 36 37 38 41
58 61 62 60 59 58 55 51 50 51 52 52 50 47 45 46 46 44 42 42 43 41 36 34 33 36 41 47 53 59 61 60 58 56 55 52 45 40 38 38 38 40 42 46
51 56 61 63 63 64 62 57 56 55 55 57 57 54 51 49 47 48 48 45 43 39 36 34 38 43 47 52 56 58 57 56 54 53 50 45 40 39 38 39 41 44 47 50
47 50 55 58 60 63 60 58 59 59 58 59 60 60 59 57 56 55 53 49 46 45 45 45 46 47 49 53 54 53 52 51 50 48 44 40 38 39 40 42 45 48 51 52
45 47 49 52 56 59 56 56 56 56 57 58 61 63 63 61 59 58 55 52 49 47 46 44 45 46 48 49 49 49 47 47 46 42 39 37 38 40 42 44 47 50 51 51
41 44 46 48 51 53 51 50 50 50 50 51 54 57 58 58 57 54 49 46 45 44 44 43 43 44 44 45 45 44 44 43 40 37 36 37 39 41 44 46 48 49 49 50
30 34 37 40 44 45 45 45 44 44 44 42 43 44 44 46 47 46 43 41 40 39 39 39 39 40 40 41 40 40 41 39 35 34 35 38 40 43 45 46 47 48 49 51
25 29 33 36 39 39 40 43 43 41 38 37 37 37 37 36 37 36 36 35 35 34 35 35 35 36 36 36 37 38 36 33 32 33 35 38 41 43 44 45 46 48 49 49
23 25 28 30 32 33 33 35 36 36 35 35 32 28 30 31 32 31 29 28 29 30 30 31 32 32 32 33 34 33 30 29 30 33 36 39 41 42 43 44 45 46 46 45
20 21 23 25 25 24 23 22 24 25 25 25 25 24 25 25 24 23 22 23 25 26 27 29 29 30 30 30 29 26 25 27 30 33 36 39 39 40 42 42 43 43 42 41
15 16 17 18 16 13 10 9 12 17 16 16 17 15 14 16 17 18 19 21 23 25 26 26 26 27 27 24 22 22 24 27 30 34 36 38 39 40 41 41 41 40 39 38
11 11 11 8 6 5 7 7 9 10 10 8 7 8 10 12 15 16 18 21 22 23 22 23 23 23 20 18 18 20 23 27 30 33 35 37 39 40 40 40 39 38 37 35

GEFSCGP_500_meanwind_018.txt.gz
Wind_Speed
34 35 33 31 34 36 36 36 33 30 32 36 36 36 34 34 34 33 31 28 24 22 22 24 27 29 28 26 26 27 28 29 29 29 30 31 33 34 35 36 36 37 38 40
36 34 31 34 37 38 38 38 35 32 34 39 39 40 38 36 34 33 31 29 26 24 24 26 28 29 28 28 28 30 32 33 34 35 35 36 38 39 40 40 41 41 43 45
36 32 33 37 39 40 40 39 37 35 37 42 43 43 41 39 37 34 31 29 26 25 26 28 31 31 31 31 32 34 37 38 40 41 41 41 42 42 43 44 45 46 48 50
34 32 34 37 39 40 40 38 38 37 39 42 45 47 44 42 41 37 32 28 26 26 28 31 32 33 33 34 35 37 40 42 44 45 45 44 44 45 46 47 48 49 52 55
30 29 33 36 37 39 38 37 39 40 42 45 46 50 48 45 42 37 33 30 29 30 31 33 34 35 35 36 38 40 43 45 46 47 47 46 46 48 48 48 50 52 55 59
31 30 32 34 34 37 37 38 41 42 43 47 45 49 51 46 42 38 35 33 33 33 34 36 36 37 37 38 40 43 45 47 49 48 48 47 47 49 49 50 52 55 59 64
31 31 31 31 32 34 36 36 39 42 44 45 42 46 49 45 42 39 37 37 37 37 37 38 39 39 39 40 42 44 45 48 48 49 48 48 49 50 50 51 54 58 63 66
33 32 29 30 30 29 33 35 37 40 42 41 41 44 43 41 40 39 39 39 38 38 38 39 39 38 39 40 42 43 45 47 48 48 48 50 50 51 51 52 56 60 63 64
33 31 27 27 27 29 31 33 34 38 41 43 43 43 41 39 38 37 36 35 34 34 34 35 35 35 36 39 42 45 46 48 49 50 50 52 51 51 51 54 58 61 62 60
33 31 26 26 26 27 29 31 35 38 40 43 44 43 40 37 35 34 33 32 33 34 35 35 35 36 37 40 43 46 49 51 52 53 54 52 51 50 52 56 58 59 58 56
36 34 28 27 25 23 26 30 34 38 41 44 46 44 38 35 33 33 32 32 33 34 35 37 38 38 40 42 45 48 51 53 55 55 52 49 49 50 52 55 56 55 54 52
39 37 34 31 30 27 29 31 34 37 40 43 47 45 38 36 35 34 34 34 35 35 35 36 38 41 43 45 48 51 54 55 54 51 49 47 49 51 53 53 52 52 51 49
41 41 39 36 36 35 35 35 37 40 41 44 46 44 38 37 36 35 36 37 38 39 39 40 43 45 46 47 49 53 53 51 50 49 48 50 52 51 51 50 50 50 49 47
45 44 43 42 41 40 40 39 40 42 44 46 47 46 42 40 39 39 39 38 39 39 40 42 44 46 47 47 48 47 47 48 50 52 52 51 50 50 49 49 49 48 47 46
50 49 48 48 47 46 45 43 43 43 44 46 47 47 46 46 45 44 43 42 42 43 44 45 46 46 47 48 46 47 49 50 50 50 50 50 50 49 49 48 48 47 46 46
55 57 57 55 53 53 52 49 48 48 48 48 49 48 47 47 47 47 46 46 46 47 47 48 49 50 50 49 49 49 50 49 49 49 49 49 49 48 48 47 46 46 46 48
51 55 59 62 61 61 60 56 55 56 55 55 55 53 53 52 51 51 51 51 51 52 52 53 53 53 52 50 48 47 47 49 48 47 47 47 46 47 46 46 46 46 48 51
45 49 53 57 59 62 61 61 60 60 59 60 60 60 59 59 58 57 57 56 55 55 55 55 55 54 51 48 46 47 48 47 45 44 45 45 46 45 45 45 46 48 51 52
40 43 45 48 52 54 54 55 56 57 56 55 56 57 58 57 58 57 55 54 54 53 53 53 51 49 46 46 45 44 44 44 43 43 44 44 44 44 45 46 48 50 52 53
38 40 43 45 48 50 51 51 52 53 52 50 50 50 51 51 52 51 50 49 49 49 48 47 45 43 43 41 39 40 40 41 42 43 43 42 42 43 45 47 49 50 51 52
33 35 37 40 43 46 46 47 48 48 47 45 44 45 46 47 47 47 47 46 45 44 42 40 39 38 36 34 35 36 38 39 40 41 40 40 41 43 45 48 49 49 50 50
28 29 31 32 33 34 37 39 40 41 39 37 37 37 38 39 40 40 40 38 37 36 35 35 36 33 30 31 33 34 36 37 37 37 37 39 41 43 46 47 47 47 47 46
27 28 28 28 27 28 29 31 31 31 31 30 31 31 32 32 32 32 32 32 30 31 32 30 27 25 26 29 31 32 33 34 34 34 36 39 41 43 44 44 44 44 43 42
27 27 27 26 25 27 27 28 28 28 27 26 26 25 25 24 23 24 24 26 27 27 25 23 21 22 24 27 29 30 30 30 31 33 36 39 41 42 42 41 40 40 39 39
24 24 23 23 23 23 24 24 23 22 20 20 19 18 17 16 18 20 20 21 20 17 17 16 17 20 22 25 26 26 26 27 30 33 36 38 39 39 38 38 37 37 36 35
18 18 18 17 18 18 17 16 14 12 11 10 11 12 13 14 15 15 14 12 11 11 12 13 15 18 20 21 21 22 23 27 31 34 35 37 37 36 36 35 35 34 33 32

GEFSCGP_500_meanwind_024.txt.gz
Wind_Speed
29 29 27 27 30 34 38 37 39 41 43 40 42 43 42 40 38 37 36 34 32 32 32 32 31 31 31 30 30 29 30 30 29 27 25 23 22 23 25 27 28 30 31 32
28 28 27 30 32 34 36 37 38 40 42 43 47 48 46 44 42 41 40 38 36 35 33 31 31 33 33 34 34 34 34 35 34 31 29 27 26 27 28 30 32 33 35 36
26 27 29 31 32 33 34 35 36 38 41 43 47 48 47 48 46 45 43 41 40 38 35 32 33 35 35 36 37 37 37 38 37 35 34 32 32 33 32 33 35 36 38 39
23 24 26 29 32 33 34 35 36 38 39 41 45 48 43 46 45 44 43 42 41 40 37 35 35 36 37 38 39 39 39 39 40 39 38 36 37 37 38 39 41 42 43 44
20 22 25 27 29 32 34 36 37 38 40 42 45 47 42 45 45 40 39 40 40 40 39 38 37 37 39 40 41 42 42 42 42 42 40 40 41 41 42 44 46 48 49 50
21 22 23 25 27 30 31 34 36 38 40 44 43 44 43 38 43 38 37 38 38 39 40 40 39 40 41 42 44 45 44 44 44 44 43 43 44 44 47 49 50 52 52 53
22 23 23 24 26 28 29 30 32 34 36 38 36 41 40 38 39 37 36 36 35 36 36 37 38 39 41 43 44 45 45 45 45 44 44 44 46 47 49 51 52 54 54 53
27 26 25 25 26 28 30 30 31 32 28 27 29 35 32 35 35 33 32 32 32 31 32 33 35 36 37 39 41 42 42 43 43 43 44 45 47 48 50 52 52 52 51 51
29 28 26 25 26 28 29 30 31 33 34 35 33 32 33 34 32 30 29 29 30 30 31 31 32 32 32 34 36 38 39 41 41 43 44 45 46 48 49 50 50 50 50 52
31 30 27 26 28 29 28 28 30 32 33 34 33 30 27 25 24 25 26 26 27 27 28 28 28 29 30 32 34 36 38 39 40 41 42 44 45 47 48 50 51 52 53 53
34 32 30 29 29 27 29 29 30 30 30 30 29 25 24 27 27 25 25 25 25 25 26 27 28 29 30 31 33 36 37 38 39 41 43 45 48 50 51 52 52 53 54 53
37 35 33 31 31 30 31 31 30 30 30 30 30 27 27 31 30 28 27 28 28 27 28 29 30 31 32 33 35 36 37 39 41 43 46 48 50 52 53 53 54 54 53 53
39 38 35 32 32 34 35 35 35 35 34 32 31 28 29 31 30 30 30 31 31 31 31 32 34 35 36 37 38 40 41 42 45 47 48 50 53 53 53 54 54 53 52 51
41 41 39 33 31 37 37 37 38 39 37 35 34 32 32 35 36 35 34 33 33 33 34 35 36 38 39 40 41 43 45 47 49 51 51 52 52 52 53 53 52 51 51 51
42 42 42 42 42 42 40 39 40 40 41 42 40 40 39 40 40 38 37 36 36 36 37 39 41 42 43 45 47 48 49 51 51 52 51 50 51 53 53 52 51 50 50 51
41 42 42 43 43 44 43 42 43 43 43 44 44 44 45 45 42 42 42 42 42 42 44 45 47 48 49 50 51 51 51 51 49 50 50 51 53 53 52 50 48 49 50 50
39 40 42 42 44 43 45 46 45 45 46 48 49 50 49 49 49 49 49 49 49 49 50 51 52 51 51 51 51 50 49 48 48 50 52 52 52 51 49 47 48 48 49 49
38 39 40 41 42 43 45 44 42 43 46 48 50 51 52 53 52 52 53 53 53 52 52 51 49 48 48 49 48 48 47 47 49 51 53 53 51 48 46 46 47 47 48 49
35 35 37 38 39 41 43 41 40 41 43 44 46 48 49 49 50 51 50 50 49 48 47 45 44 44 45 45 44 44 45 48 51 54 54 50 46 44 44 45 45 46 47 49
30 32 33 35 36 38 41 39 39 39 41 41 41 43 44 44 45 47 46 46 45 44 43 42 41 40 41 41 41 43 46 50 53 52 48 43 42 42 42 43 44 46 47 49
28 29 31 33 34 37 38 37 37 36 37 37 37 37 38 40 41 42 42 42 42 41 39 38 37 36 37 38 41 45 49 51 49 43 40 39 39 40 41 42 44 45 47 47
25 26 27 29 30 33 34 34 34 34 33 32 32 32 32 33 34 35 36 36 35 34 34 33 32 33 34 38 43 47 46 43 39 36 36 36 37 39 40 42 43 44 45 46
23 24 25 27 29 31 31 32 32 31 29 28 28 28 28 28 28 28 29 29 29 28 28 28 29 30 35 40 43 41 37 33 32 33 34 35 37 39 41 42 43 44 43 41
22 23 25 26 28 30 30 30 30 28 27 25 24 23 24 24 23 23 24 24 24 24 24 26 28 31 36 36 33 30 29 29 29 31 33 35 38 40 41 42 42 41 38 34
22 23 24 25 26 26 27 26 24 23 21 19 18 18 18 18 18 18 18 18 19 21 23 25 28 29 27 24 22 23 24 25 28 31 34 37 39 40 41 40 38 34 30 27
19 19 19 18 19 19 19 18 16 14 12 12 11 11 12 12 12 12 13 14 16 18 19 19 18 17 16 17 18 20 23 26 30 33 35 38 39 40 38 34 30 26 23 22

GEFSCGP_500_meanwind_030.txt.gz
Wind_Speed
29 30 28 26 26 25 25 24 21 19 18 22 29 32 29 26 29 32 33 31 31 31 32 35 39 39 34 32 30 31 34 34 35 36 38 40 41 42 42 40 40 38 35 34
30 28 25 26 26 26 26 29 28 26 24 25 29 34 36 33 31 32 35 35 33 33 36 38 42 43 39 34 34 34 36 37 38 39 41 43 44 45 44 43 42 40 36 35
26 22 24 26 27 27 28 29 29 29 29 31 33 36 39 40 36 36 38 40 38 36 38 41 44 45 43 41 39 38 38 39 40 41 43 45 47 47 46 45 43 41 40 38
23 23 22 23 25 26 27 27 28 30 32 33 34 37 37 38 35 34 35 38 39 37 38 42 45 46 44 43 41 41 40 39 40 42 45 46 47 48 48 47 45 43 42 41
20 20 22 21 21 23 23 23 25 26 29 33 35 38 37 33 31 31 31 33 37 39 39 41 43 44 43 42 42 41 40 40 42 44 45 46 47 48 47 47 46 45 44 43
20 18 19 19 19 20 19 21 23 24 26 30 28 30 33 29 29 28 27 28 34 38 39 41 40 38 38 40 40 40 40 41 43 44 46 46 47 48 47 47 47 46 46 45
20 20 20 19 18 18 18 18 19 20 21 22 17 21 23 19 20 24 26 29 34 38 39 40 37 36 37 38 38 39 40 42 43 44 46 47 47 48 48 48 48 47 48 46
21 21 20 21 20 19 19 19 19 18 17 16 15 16 15 16 20 25 28 32 35 38 38 38 37 36 36 36 37 38 39 41 42 44 45 46 47 47 48 48 48 48 48 48
21 18 19 22 22 22 21 22 19 20 21 23 23 22 19 19 23 28 30 30 30 31 32 33 33 33 34 35 36 38 39 40 41 42 43 45 46 46 46 48 48 47 48 50
28 26 19 17 22 25 23 21 22 24 24 25 24 21 20 22 23 23 25 26 27 26 27 28 28 30 32 34 35 36 38 39 40 42 43 45 46 46 46 46 46 48 50 52
32 32 26 20 23 24 24 23 24 25 25 24 24 20 17 23 24 25 26 26 28 29 33 32 30 30 32 34 36 37 38 39 41 42 44 45 46 46 47 48 49 51 53 55
33 34 33 30 25 24 25 24 23 26 27 27 28 26 23 28 30 30 31 34 36 38 37 35 31 30 32 34 36 37 39 40 42 43 45 46 47 48 50 52 53 54 55 57
36 37 37 33 30 27 27 27 27 28 28 28 27 26 24 30 33 34 36 39 40 37 35 32 30 32 34 36 37 38 40 42 43 45 47 49 51 52 54 55 55 56 57 58
36 38 37 33 27 28 31 32 31 30 30 31 29 27 30 34 36 36 38 39 36 30 29 32 35 37 38 39 41 42 44 46 47 50 52 53 54 55 55 55 56 58 59 60
38 39 39 38 36 33 32 33 33 33 34 32 30 29 34 37 39 40 41 41 40 41 44 46 45 44 45 45 46 47 49 51 52 54 55 56 56 55 55 56 57 60 63 64
38 39 39 40 38 39 40 39 37 35 33 34 35 36 44 48 48 48 49 50 51 53 54 53 52 50 50 49 50 51 52 54 55 56 56 56 56 56 56 57 60 63 65 67
35 36 37 38 38 39 42 41 42 44 44 45 45 48 50 49 49 49 50 51 52 54 54 54 54 54 53 52 52 52 53 53 54 55 55 54 55 56 58 59 61 65 66 64
33 34 35 36 37 39 38 38 41 43 45 47 48 48 48 47 47 47 47 49 50 51 52 53 53 54 53 52 51 51 51 51 51 51 51 52 54 57 59 61 64 66 64 59
31 32 33 34 35 35 32 36 39 40 43 44 45 45 45 44 46 46 46 47 48 49 49 50 50 50 50 49 48 48 47 47 48 49 49 52 55 58 60 61 62 60 57 52
28 29 30 31 32 31 34 36 37 37 41 40 40 40 40 41 43 44 44 45 46 46 47 47 47 47 46 45 45 44 44 44 45 47 49 52 56 58 57 56 54 51 48 46
24 24 25 27 29 31 33 34 35 38 41 40 39 39 39 40 41 41 42 42 42 43 43 42 42 41 40 40 39 39 40 41 43 46 50 53 54 53 50 48 46 45 45 46
25 24 24 26 28 32 32 33 35 37 37 38 37 38 38 38 39 39 39 38 38 38 37 37 36 35 35 34 34 36 38 41 43 46 48 48 47 46 44 43 43 43 43 43
24 25 25 26 27 29 30 32 33 34 35 35 36 36 37 37 37 36 35 34 33 32 32 31 31 30 30 30 32 35 38 41 42 43 41 40 39 39 40 41 41 40 39 36
22 21 22 25 27 29 30 31 32 32 33 34 34 35 35 34 33 32 31 29 28 27 27 26 26 26 27 29 32 35 36 37 36 34 33 34 35 36 37 38 36 34 31 28
21 20 21 23 26 27 28 29 29 30 30 31 31 30 28 27 25 24 23 22 22 22 21 21 22 23 25 27 28 28 28 28 29 30 31 33 34 34 33 30 27 25 22 21
20 20 21 22 24 25 26 26 26 25 24 23 22 20 19 18 17 16 16 15 15 16 17 18 20 20 21 21 22 23 24 26 28 30 31 31 30 27 25 22 20 19 18 19

GEFSCGP_500_meanwind_036.txt.gz
Wind_Speed
33 34 32 29 29 29 31 32 32 29 29 31 29 26 24 25 28 29 28 29 30 32 33 36 37 36 34 33 33 33 32 33 34 36 37 37 36 34 33 34 35 36 37 37
34 32 27 29 32 32 33 34 32 29 30 32 33 31 28 27 27 28 29 30 32 33 35 36 37 37 38 37 35 35 36 37 36 36 39 40 39 37 37 37 37 38 39 40
30 26 29 32 32 31 31 31 30 29 29 33 35 33 29 27 26 27 29 32 34 35 35 37 38 38 37 37 35 36 38 39 39 40 42 41 41 40 38 38 38 39 41 41
29 29 32 33 32 30 28 27 27 29 30 32 33 34 29 27 28 29 30 32 34 35 37 36 36 36 36 36 36 38 40 41 43 44 43 44 41 39 39 39 40 41 42 43
27 29 31 30 29 29 27 25 26 28 30 32 32 34 29 28 32 33 33 34 35 36 36 35 34 34 35 36 37 39 41 44 45 44 45 43 40 39 39 40 41 41 43 44
26 30 31 29 26 25 24 24 25 28 30 29 25 30 27 23 29 33 36 37 37 37 36 35 33 33 34 36 39 42 44 46 46 45 44 43 41 40 40 41 42 43 44 45
26 29 31 30 27 24 23 23 24 26 26 20 17 22 19 19 24 28 31 32 33 32 32 31 30 32 34 38 42 45 48 48 47 44 44 44 43 42 42 43 44 45 46 46
25 26 27 26 24 21 21 22 22 22 20 16 17 17 14 17 21 23 25 25 25 26 27 29 31 33 36 40 43 46 47 47 47 46 45 44 44 44 44 45 47 48 48 49
23 23 23 22 20 19 18 19 18 20 19 18 19 18 16 18 21 22 22 23 24 26 29 31 33 36 39 42 44 45 45 45 46 43 42 43 44 45 47 49 50 50 51 52
23 24 26 25 24 23 21 18 19 21 21 21 20 20 21 24 25 25 26 27 28 31 33 35 37 39 41 43 46 45 42 41 40 40 41 43 45 47 50 51 52 53 54 55
25 27 27 26 25 24 23 23 24 22 22 22 22 22 24 26 28 30 31 32 33 35 36 38 39 40 42 44 45 44 43 41 38 39 41 45 47 50 52 54 55 56 57 58
27 30 29 28 25 24 25 25 25 26 25 23 24 26 27 29 30 31 32 33 34 36 37 39 39 41 43 44 45 44 42 39 38 41 44 47 50 53 55 57 58 60 61 62
29 31 30 29 28 26 27 28 29 29 28 27 26 30 31 32 32 34 35 36 38 40 41 42 42 43 43 44 45 45 44 44 45 46 48 51 54 55 57 59 61 62 63 64
32 32 31 32 33 32 31 30 31 31 31 31 31 33 35 36 36 37 38 40 41 42 43 44 44 45 45 46 48 49 49 51 52 53 54 55 56 58 59 61 62 62 62 62
34 34 34 34 35 36 36 35 35 35 35 36 37 38 39 41 42 43 44 45 46 47 46 46 47 49 52 54 55 55 56 56 57 57 57 57 57 57 58 58 58 58 59 58
37 37 37 37 37 39 40 41 41 41 42 43 44 46 47 47 48 49 49 49 49 48 48 50 52 55 57 58 58 58 57 58 57 57 56 56 55 55 55 55 54 54 55 55
39 38 38 39 39 40 42 43 44 45 46 47 48 48 49 50 51 51 51 50 50 51 53 55 56 58 58 57 57 57 57 57 56 56 55 54 53 51 50 51 51 52 53 54
38 39 38 38 37 38 40 42 44 45 47 49 50 51 52 52 52 53 53 54 56 57 58 58 57 57 57 56 56 55 55 54 53 52 51 49 48 48 48 48 49 50 51 52
36 36 36 36 35 35 36 38 40 41 44 46 48 50 52 53 53 54 54 55 55 55 55 55 54 54 54 53 53 53 52 51 49 47 46 45 44 45 45 46 48 50 52 53
31 31 32 32 32 32 32 33 35 37 40 41 43 45 47 48 49 49 49 50 50 50 51 51 51 51 51 50 49 49 47 46 44 43 42 42 42 43 45 46 49 51 51 50
25 25 25 26 27 29 29 29 29 32 35 36 38 40 41 43 44 45 46 46 47 47 47 47 47 47 46 45 44 44 42 41 40 39 40 40 42 44 45 46 46 45 44 43
22 21 21 22 22 23 23 24 26 28 30 32 34 36 37 39 40 42 43 43 43 43 43 43 43 42 41 40 39 38 37 37 37 37 38 39 40 41 40 40 39 39 38 38
20 21 20 20 21 21 22 24 25 26 28 29 31 33 35 36 37 37 38 38 38 38 38 38 37 36 35 34 33 33 33 33 34 35 35 36 36 36 36 36 36 35 34 33
20 19 19 20 21 22 23 24 25 26 27 28 30 31 32 33 33 33 33 33 33 32 31 30 29 28 28 28 29 30 30 31 31 32 32 33 33 33 33 32 31 30 28 27
18 18 18 19 19 21 22 23 24 26 27 28 29 29 30 29 29 28 28 27 25 24 24 23 22 22 23 24 25 26 26 28 29 31 31 31 31 30 28 27 26 24 23 22
17 18 19 19 20 21 22 23 23 25 25 26 26 25 24 23 22 21 20 18 18 17 17 17 18 19 20 21 23 25 27 28 29 29 29 28 27 26 24 22 21 20 20 19

GEFSCGP_500_meanwind_042.txt.gz
Wind_Speed
38 37 35 33 33 33 34 34 34 34 37 38 37 34 32 32 33 32 31 30 29 27 25 25 24 22 22 22 23 24 25 27 29 31 33 35 36 35 36 36 36 34 31 31
38 36 34 35 35 35 35 35 34 35 39 42 42 39 35 34 35 34 34 33 31 29 29 28 26 25 24 24 24 25 27 28 30 33 36 39 40 39 40 39 37 33 30 30
38 35 34 35 36 36 35 35 33 34 39 43 43 42 39 37 36 35 34 34 33 32 31 29 28 27 25 25 26 27 28 31 34 37 39 41 42 42 43 39 36 33 30 28
38 36 35 36 36 35 34 32 32 34 38 41 43 43 39 38 37 35 35 34 34 33 32 31 30 28 27 27 28 30 32 35 37 39 41 43 44 46 43 38 36 33 30 29
36 35 35 35 34 34 31 31 33 35 37 39 40 41 38 36 36 35 35 35 35 34 33 31 31 30 30 31 32 35 37 38 39 41 43 45 47 48 43 39 35 33 32 30
35 35 35 34 33 33 32 33 34 35 36 37 36 38 38 35 35 34 36 36 36 35 34 33 33 33 33 34 36 38 40 40 41 43 45 46 46 44 42 39 36 34 32 32
33 34 34 35 35 34 33 33 34 34 35 33 32 35 36 34 34 34 35 36 36 35 34 33 34 35 36 37 38 40 41 42 43 44 45 46 45 44 42 40 39 37 37 36
30 31 32 33 33 32 31 32 33 32 31 29 30 33 33 33 33 33 33 34 34 34 33 33 34 35 36 36 38 39 40 42 43 44 44 43 43 43 43 43 43 42 41 42
25 26 28 29 28 29 30 31 30 30 28 28 29 31 32 31 30 31 31 32 32 32 32 32 33 33 34 34 36 38 39 41 42 43 44 46 46 45 46 47 47 46 46 47
23 23 24 26 28 30 31 31 30 30 28 27 28 28 28 28 28 29 30 30 30 30 30 30 31 32 33 34 35 37 39 41 43 45 46 47 48 48 48 49 50 50 51 51
21 22 24 27 30 31 32 31 31 30 28 27 27 26 26 27 28 28 29 29 29 30 31 32 33 34 35 36 37 39 41 43 46 47 49 49 51 52 52 53 54 54 55 57
20 22 26 29 31 32 32 32 31 30 28 27 26 26 26 27 28 29 29 30 31 32 32 33 34 36 37 38 40 42 44 46 48 49 51 52 54 55 56 57 57 58 59 59
19 22 25 29 31 32 33 32 31 30 29 29 28 29 29 29 30 30 31 32 33 34 35 36 37 38 39 41 43 45 47 50 52 54 55 57 58 59 59 60 61 61 62 61
21 22 25 28 30 31 32 32 33 32 32 32 32 33 33 34 34 34 35 35 36 37 38 39 40 41 43 45 47 49 52 54 56 57 59 61 61 62 63 63 63 63 62 61
23 24 25 28 30 31 32 33 33 34 34 35 36 37 37 38 38 38 37 38 39 40 40 42 43 45 47 49 51 53 55 57 58 60 62 62 63 63 63 62 62 61 60 60
26 27 28 30 32 33 33 34 35 35 36 37 37 38 39 40 40 41 41 41 42 43 44 45 47 49 52 54 56 57 59 60 61 62 62 62 61 61 60 59 59 59 58 58
30 30 31 33 35 36 36 36 37 37 37 37 38 38 39 40 41 42 42 43 44 45 47 49 51 53 55 58 59 60 61 62 61 61 60 58 58 57 57 56 56 56 55 55
30 33 34 36 37 38 38 37 38 38 38 38 38 39 40 40 40 40 42 43 45 47 49 52 54 55 57 58 59 59 59 59 58 57 57 56 55 55 54 54 53 52 52 51
27 29 32 34 36 37 37 37 36 36 37 37 37 38 38 39 40 41 42 44 46 48 50 51 53 54 56 56 56 56 56 55 55 54 53 52 52 51 50 50 49 48 48 47
25 26 27 29 31 32 32 32 33 33 34 34 35 36 37 38 40 41 43 44 46 47 48 49 50 51 52 52 52 52 52 51 50 49 48 48 47 46 45 45 45 45 45 45
21 21 22 23 25 26 26 26 27 28 29 30 32 33 35 36 38 39 40 41 42 43 44 46 47 48 48 48 48 48 47 46 45 44 42 42 41 41 42 42 42 42 42 42
18 19 19 19 20 20 21 22 23 24 25 27 28 29 31 32 33 34 36 37 39 40 41 42 43 43 43 43 42 41 40 39 38 38 38 38 38 39 39 39 39 39 39 39
17 17 18 18 19 19 20 21 22 23 24 24 25 26 27 29 31 32 33 35 36 37 38 38 38 38 37 36 35 34 34 33 34 34 35 35 36 37 37 37 37 37 36 35
16 16 16 17 18 19 19 20 20 21 23 24 25 26 27 29 30 30 31 32 32 33 33 33 32 31 30 29 28 29 29 30 31 33 34 35 36 36 36 35 34 33 31 29
15 15 15 15 15 16 17 18 20 21 22 23 24 25 26 27 27 27 27 27 27 26 26 25 24 24 23 24 25 26 28 30 32 33 34 34 34 33 32 30 29 27 25 23
16 15 15 14 15 16 16 18 19 20 21 21 22 22 23 23 22 22 21 20 20 19 19 18 18 19 21 22 25 27 29 31 32 33 32 31 30 28 26 25 23 21 19 18

GEFSCGP_500_meanwind_048.txt.gz
Wind_Speed
36 34 33 32 31 32 31 31 31 32 31 29 30 29 29 28 26 26 26 25 23 23 23 23 23 25 25 25 25 25 26 25 26 26 27 29 31 34 36 38 38 38 37 39
37 35 33 33 33 33 32 32 33 34 33 33 33 32 31 31 29 29 29 28 27 26 26 26 27 27 28 28 28 28 29 29 29 30 30 32 34 36 39 40 40 40 40 40
37 35 34 34 34 33 33 32 33 35 36 36 35 34 34 34 33 32 32 31 31 30 30 30 30 30 30 30 30 31 31 31 31 32 33 34 37 39 41 41 42 43 41 37
38 37 35 34 34 34 33 33 33 35 36 38 39 37 36 38 37 36 36 35 35 33 32 32 32 32 31 31 31 32 32 33 33 34 35 37 39 40 42 43 42 42 42 39
36 36 35 34 33 33 33 33 33 35 36 38 38 38 35 39 38 39 39 38 37 36 34 33 33 32 31 31 32 33 34 35 36 37 38 39 41 42 43 42 42 42 41 39
34 34 34 34 33 33 33 33 33 34 35 38 37 37 34 41 38 38 39 39 38 37 36 34 33 32 31 32 33 34 36 37 38 39 40 41 42 42 42 42 42 42 42 39
31 32 33 33 33 34 33 33 32 32 34 33 35 34 35 40 37 36 36 37 36 35 34 33 32 32 32 33 34 36 37 38 39 40 41 42 42 42 42 42 42 41 41 41
24 27 29 30 30 32 32 32 30 25 24 25 32 30 36 35 34 32 32 32 32 32 31 30 30 30 31 32 33 34 36 37 38 40 41 41 42 42 42 42 42 42 42 42
19 21 24 26 28 29 29 30 28 27 25 21 22 30 32 31 31 29 29 28 28 28 28 28 28 29 30 31 32 33 35 37 38 40 41 42 42 42 43 43 43 43 45 46
17 17 20 23 26 28 28 27 28 29 25 21 21 24 26 28 28 27 27 26 25 25 25 26 27 28 29 31 32 34 36 37 39 40 41 42 43 44 44 45 45 47 49 50
15 15 16 19 22 23 26 28 28 26 23 20 18 21 27 25 25 24 24 24 24 24 24 25 27 28 30 32 33 35 36 38 39 41 42 43 44 45 46 48 49 51 52 53
14 14 14 17 20 22 23 23 25 24 24 24 20 23 25 24 24 24 24 24 24 25 25 27 28 30 31 33 34 36 37 39 40 42 44 45 47 49 51 53 54 56 57 58
13 14 14 16 19 22 24 25 25 25 24 23 21 25 26 25 25 25 26 26 27 28 29 30 32 33 34 36 37 38 40 42 43 45 47 48 50 52 54 56 58 60 61 61
13 14 15 15 17 21 23 24 25 25 23 23 23 28 28 27 27 28 28 29 30 31 33 35 36 37 38 38 40 41 42 44 46 48 50 51 54 56 57 59 60 61 61 61
13 15 17 18 20 21 23 25 26 27 26 26 27 30 31 31 31 31 32 33 34 35 36 37 38 39 40 41 43 44 46 48 49 51 52 54 56 58 59 60 60 60 61 60
14 16 17 19 20 22 24 26 27 28 29 30 31 32 33 33 33 34 35 36 37 38 39 39 40 41 42 43 45 47 48 49 51 53 54 55 57 58 59 59 59 59 59 59
15 16 18 20 21 22 26 27 28 30 31 32 33 34 34 35 35 36 36 37 39 39 40 41 42 43 44 45 46 48 49 50 52 54 55 55 56 57 57 57 57 57 56 56
14 16 18 20 21 24 27 26 28 30 32 33 34 34 35 36 37 37 37 38 38 39 39 40 41 42 43 44 46 48 49 50 51 53 53 54 54 55 54 54 54 53 52 51
12 14 17 19 21 24 25 26 27 28 30 31 32 33 34 35 36 35 36 36 37 37 39 40 41 42 43 44 45 47 48 49 50 50 51 52 52 51 50 50 49 49 48 48
13 13 15 16 18 22 23 24 25 26 28 28 29 30 31 32 32 33 33 34 36 37 38 39 40 41 42 43 44 45 46 47 48 49 49 48 47 47 46 46 45 45 45 45
12 13 14 15 17 20 19 19 20 22 24 24 25 26 27 28 29 30 32 33 35 36 37 38 39 40 41 42 43 44 45 45 45 45 44 44 44 43 43 43 43 44 44 44
12 13 13 14 16 17 17 17 18 19 20 21 22 23 24 25 26 28 30 31 32 34 35 36 37 38 39 40 41 41 41 41 41 41 40 40 41 41 42 42 42 42 42 42
13 13 13 14 15 16 16 16 17 18 18 20 21 21 22 24 25 27 28 29 30 31 33 34 35 36 37 37 37 37 37 37 37 38 38 39 40 41 41 41 40 39 38 36
13 13 13 13 14 15 15 15 16 17 18 19 20 21 22 24 25 26 27 28 29 30 30 31 32 32 32 32 32 32 33 34 36 37 38 39 39 39 38 36 34 32 30 28
13 13 13 13 13 14 15 15 16 17 18 19 20 21 22 22 23 24 25 25 25 26 26 26 26 26 26 27 28 30 32 34 35 36 36 36 35 33 31 28 26 24 22 20
13 12 13 13 13 13 14 14 15 16 17 18 19 19 19 20 20 20 20 20 20 21 21 21 21 22 23 25 28 30 32 33 33 33 32 30 28 25 23 20 18 17 16 14

GEFSCGP_500_meanwind_054.txt.gz
Wind_Speed
34 34 32 29 26 23 20 18 16 15 19 22 20 19 19 19 19 19 19 20 21 22 23 23 24 23 22 22 21 21 23 24 25 26 28 30 30 31 32 34 34 35 34 35
34 33 32 30 27 26 25 23 20 18 22 26 23 22 22 21 21 22 23 24 26 26 26 26 25 24 24 24 24 24 26 27 29 30 31 32 33 34 35 35 36 36 36 36
32 29 31 31 29 28 29 26 23 21 24 28 26 24 25 25 25 26 26 28 28 28 27 26 27 28 27 27 27 28 29 31 32 33 34 35 36 37 37 38 38 39 39 39
30 30 30 31 31 30 29 28 27 26 26 27 27 25 24 25 27 29 30 31 30 28 29 30 30 29 30 31 30 31 33 34 35 36 37 37 38 39 39 40 40 41 41 42
28 30 31 32 30 30 29 26 27 29 30 29 26 24 21 22 27 31 33 34 32 30 30 31 32 33 33 34 34 34 36 36 37 37 38 38 39 40 41 42 43 43 44 43
24 26 29 31 30 29 29 28 27 28 30 32 28 25 21 23 29 33 34 34 32 31 31 33 34 35 36 36 37 37 37 37 37 38 38 39 41 42 43 44 45 45 45 45
23 24 27 29 30 29 29 28 26 26 28 28 24 25 26 29 32 35 36 35 34 33 33 34 35 36 37 37 37 37 37 37 37 37 38 40 42 44 45 46 46 46 46 46
16 20 23 27 28 28 28 28 26 20 16 15 17 21 28 33 35 37 38 38 38 37 36 36 36 36 36 36 35 36 36 36 36 37 39 41 43 44 45 46 47 47 47 47
14 14 18 21 23 25 25 26 25 23 20 15 15 26 32 32 33 35 38 39 40 39 38 36 35 33 33 33 34 35 35 36 37 38 40 41 43 45 46 47 48 48 49 50
15 14 15 17 19 21 22 21 23 27 25 20 14 23 30 30 30 32 34 36 36 35 34 33 32 31 31 32 33 34 35 36 37 39 41 42 44 45 47 48 49 51 51 52
14 15 14 15 18 18 20 21 23 24 26 23 18 22 25 27 28 30 29 28 28 29 28 29 29 30 30 31 33 34 35 37 38 40 42 44 45 47 48 50 51 52 53 54
15 15 15 16 16 16 17 20 21 25 25 26 24 27 27 27 29 28 26 24 24 25 26 28 29 30 31 32 33 35 36 38 40 42 44 45 47 48 50 51 53 54 55 57
14 15 12 13 15 15 17 19 20 22 23 24 24 30 31 30 30 28 25 24 24 25 26 28 29 31 32 33 35 36 38 39 41 43 45 47 48 50 51 53 55 56 58 59
12 14 15 14 15 17 19 20 20 21 22 22 26 31 32 32 31 28 25 24 24 25 27 29 31 33 34 36 37 39 41 42 44 46 48 49 50 51 53 55 56 57 59 60
11 13 14 14 12 13 18 20 19 21 23 25 27 30 33 33 32 29 27 26 26 27 29 32 34 36 38 39 41 43 45 46 47 49 50 51 52 54 55 56 57 58 59 59
10 12 13 13 13 12 14 16 17 19 24 27 29 31 33 31 30 30 29 29 30 31 33 35 37 39 41 42 43 45 46 47 47 48 49 50 52 54 55 56 57 58 58 59
8 11 13 12 13 13 15 19 21 23 25 27 31 32 32 32 31 31 32 33 34 35 36 37 39 41 41 42 43 44 45 46 47 48 50 50 52 53 53 54 55 56 56 56
9 11 11 12 14 15 19 20 21 24 26 28 29 32 34 35 35 35 35 35 36 36 36 36 37 38 39 40 42 43 45 46 48 49 50 51 51 52 53 53 54 54 54 54
7 9 11 13 15 18 23 24 23 23 26 28 30 32 33 34 35 35 35 35 35 35 35 35 37 38 38 41 42 44 46 47 47 48 49 49 50 51 51 52 51 51 51 51
8 9 11 13 16 19 22 23 22 23 26 27 28 30 32 32 33 33 33 33 33 32 33 35 36 38 40 41 42 43 44 44 45 46 47 48 48 48 48 48 49 49 49 49
9 10 12 14 17 21 23 24 23 25 26 26 27 28 29 30 30 30 30 31 30 31 33 34 36 37 38 39 40 41 42 43 44 44 45 45 45 45 46 46 47 47 46 45
11 12 13 14 17 20 21 22 23 23 24 24 24 25 26 26 27 28 28 29 30 31 32 33 34 35 36 37 38 39 40 40 40 41 42 43 43 44 45 44 44 42 41 40
12 13 15 16 17 19 20 22 22 23 23 23 23 23 23 24 25 26 27 28 29 29 30 31 32 33 34 35 35 36 36 37 38 39 40 41 42 42 41 40 38 35 34 32
14 13 15 17 18 19 19 20 20 21 21 21 21 22 22 22 23 24 25 26 26 27 28 29 29 30 30 31 32 33 34 34 36 37 38 37 37 36 34 31 29 27 26 24
16 16 16 17 18 18 18 19 19 19 20 20 20 20 20 21 22 23 23 23 24 25 25 26 26 27 28 28 30 30 31 32 33 33 33 33 31 29 26 24 22 20 19 18
16 17 17 18 18 18 18 18 18 18 18 18 18 18 19 19 19 19 20 20 21 22 22 23 24 25 26 26 27 28 28 29 30 30 30 28 25 22 19 17 16 16 15 14

GEFSCGP_500_meanwind_060.txt.gz
Wind_Speed
27 29 30 31 31 29 28 27 26 25 23 21 19 19 21 23 25 25 26 26 24 24 24 24 23 22 21 20 19 18 17 16 17 19 20 22 23 23 24 25 26 27 27 27
26 27 28 30 31 30 29 27 25 24 23 21 20 21 22 24 24 24 25 25 25 24 25 25 25 23 22 21 20 20 18 19 19 21 24 26 27 27 29 30 31 32 32 32
24 26 29 30 30 29 29 27 26 25 25 23 21 21 24 24 24 25 26 25 25 25 25 25 26 25 24 22 23 23 22 23 23 25 27 29 31 32 34 34 35 36 37 36
23 26 29 30 31 31 29 28 28 26 25 23 22 22 24 25 26 26 26 26 26 25 27 28 27 27 26 26 26 26 25 25 27 29 30 32 34 36 37 37 38 38 38 38
22 24 26 29 30 32 31 30 30 28 27 27 26 25 25 27 28 28 28 27 27 27 28 29 29 30 30 29 29 29 30 31 33 33 33 34 36 38 39 38 38 37 37 37
20 23 25 26 29 31 33 33 33 31 29 29 27 27 26 28 31 31 31 30 29 28 29 30 31 32 33 33 33 33 35 35 35 36 36 38 39 40 40 39 39 39 39 39
19 21 23 25 27 30 32 33 34 33 32 30 27 28 29 29 32 34 34 33 32 32 32 33 33 34 36 36 36 36 37 38 39 40 40 41 41 41 41 40 40 40 41 41
16 18 20 23 26 28 30 32 33 33 33 31 29 32 32 31 33 35 36 35 35 35 35 35 36 37 38 38 38 38 39 40 42 42 42 42 41 41 41 42 42 43 43 44
14 16 17 19 22 24 27 28 29 30 31 31 32 34 33 30 31 34 36 36 36 36 35 37 38 39 40 40 40 40 40 41 41 42 42 42 42 42 42 43 44 44 45 46
12 15 17 17 19 21 23 24 26 28 30 31 31 32 32 30 30 30 32 35 35 35 36 36 38 39 39 39 39 40 41 40 40 40 40 41 42 43 44 45 46 47 48 49
11 13 16 18 18 17 20 23 25 27 29 31 31 32 33 31 30 29 30 32 33 34 36 37 37 37 37 38 39 40 40 39 39 40 40 41 43 44 45 46 48 49 51 52
10 13 15 17 16 16 18 20 23 26 27 30 33 35 35 32 30 30 29 30 30 32 35 36 36 36 37 38 38 37 37 38 39 40 41 42 43 44 46 48 50 52 53 55
10 12 14 16 17 18 19 21 22 24 25 28 32 36 36 33 31 30 28 27 29 30 31 34 35 34 35 35 35 35 36 37 39 40 41 42 44 46 48 50 52 54 56 58
9 11 14 17 19 20 21 23 24 25 27 28 31 34 35 34 33 32 30 28 27 29 30 31 32 33 34 34 34 34 36 38 39 41 43 45 47 49 50 53 54 55 57 59
6 9 10 14 17 20 22 23 24 26 27 28 29 31 33 34 34 32 29 28 28 27 28 29 30 30 31 32 34 35 37 39 41 43 45 47 48 50 52 53 54 56 57 58
5 7 9 11 13 16 20 21 23 24 25 27 28 29 30 32 32 32 30 29 28 28 28 28 29 29 30 32 34 36 38 40 41 43 45 46 48 49 51 51 53 55 56 57
4 6 6 7 10 13 16 18 19 23 24 25 27 28 28 28 28 29 29 29 29 30 29 28 28 30 30 32 34 35 37 39 41 43 45 46 48 49 50 51 52 53 54 55
3 5 6 9 10 12 11 13 16 19 21 22 23 24 26 27 27 27 27 28 29 29 30 29 29 29 30 31 32 34 36 38 40 42 43 44 46 48 49 49 50 51 52 52
3 5 7 9 11 12 14 14 15 16 19 21 22 22 23 25 27 28 28 27 27 26 26 26 27 27 29 30 31 33 35 36 38 40 41 42 43 44 45 46 48 49 50 51
5 5 7 9 11 12 13 15 16 17 18 19 20 21 22 23 24 24 24 23 24 25 26 26 27 27 29 31 32 32 34 35 37 38 39 39 41 42 43 45 46 48 48 48
7 7 7 9 10 11 12 13 15 16 18 18 18 20 20 21 22 22 22 22 23 24 24 25 27 28 29 30 31 31 33 34 34 35 36 37 38 40 41 43 43 43 42 41
9 9 9 10 11 12 13 14 15 17 18 18 18 19 19 20 21 21 21 21 21 22 23 25 26 27 27 28 28 29 30 31 31 32 33 34 35 36 38 38 37 36 34 32
10 10 11 12 12 13 14 14 15 16 17 17 17 17 18 18 19 19 19 19 20 22 23 24 24 25 25 26 27 28 28 28 29 29 30 31 32 33 33 32 30 29 28 26
11 12 13 13 14 14 14 14 15 15 16 15 15 15 15 16 16 17 17 18 19 20 20 21 21 22 23 24 25 25 25 25 25 26 27 28 28 29 28 27 25 24 23 22
13 14 15 15 15 15 15 14 15 15 15 14 14 14 13 14 14 15 15 16 16 16 17 18 19 21 22 22 22 22 22 22 22 23 24 24 24 24 23 23 22 20 19 18
14 15 16 15 16 15 15 14 14 14 14 14 13 13 13 13 13 13 13 13 14 15 16 16 17 18 19 20 20 20 19 19 20 20 20 20 20 19 20 19 18 17 16 15

GEFSCGP_500_meanwind_066.txt.gz
Wind_Speed
23 24 24 26 28 30 31 31 30 30 31 30 30 30 33 33 31 30 29 28 27 25 24 22 20 20 19 19 20 21 22 23 24 25 24 25 25 25 25 26 27 27 28 28
22 23 24 25 27 28 30 30 29 30 32 32 32 31 32 34 32 30 30 29 28 27 26 23 22 22 22 22 21 21 22 24 25 25 26 27 29 29 29 30 29 31 31 32
21 22 23 25 26 27 28 29 28 29 31 31 31 32 31 32 32 31 30 29 29 27 26 25 25 24 23 23 23 21 22 25 26 27 29 29 31 31 32 32 32 33 34 33
21 22 23 24 25 26 26 27 28 29 30 30 31 32 32 31 31 31 30 30 29 28 28 27 27 25 24 24 23 23 23 25 26 28 30 32 33 33 34 35 34 33 33 34
19 21 23 23 24 25 26 27 28 29 30 31 31 32 32 31 31 30 30 30 30 29 29 29 28 27 26 25 24 25 26 27 28 31 32 34 36 36 37 37 37 35 34 36
17 20 22 23 24 25 26 28 28 29 31 31 31 32 32 31 30 30 30 30 30 30 31 30 29 28 27 27 27 29 28 28 30 31 33 36 37 38 39 40 39 38 38 39
16 18 20 22 24 25 27 29 29 30 31 31 32 33 34 32 31 31 31 30 30 31 31 31 31 30 30 30 31 32 31 31 33 35 37 38 39 39 41 41 40 40 40 41
15 16 18 20 22 23 26 29 31 31 32 33 33 34 33 31 30 31 31 31 31 31 31 32 33 32 33 33 33 34 35 35 36 37 39 40 41 42 42 42 43 43 43 43
14 14 16 18 20 22 25 27 30 31 31 33 34 35 35 33 32 33 33 33 32 32 33 33 34 35 36 37 38 38 39 39 39 41 41 42 43 42 43 43 43 44 44 45
13 14 16 17 19 22 24 26 28 30 30 32 34 35 35 33 33 33 33 34 34 34 34 35 37 38 39 39 39 40 40 40 41 41 42 42 43 43 44 44 45 45 46 46
12 14 15 17 19 21 24 26 28 29 30 30 32 34 34 34 34 34 35 35 35 36 36 37 37 38 38 39 40 40 39 41 41 41 41 42 42 43 44 44 45 45 46 47
11 13 15 17 18 20 22 23 26 27 27 29 31 33 33 34 34 34 35 36 36 36 36 36 36 37 38 39 39 40 40 40 40 41 40 40 40 41 42 43 44 46 48 49
8 11 12 15 17 19 21 21 23 25 26 28 31 32 32 33 33 33 34 35 35 35 36 36 36 35 35 36 36 37 38 38 38 38 39 39 40 41 43 44 46 47 49 50
6 8 9 12 14 16 18 20 21 23 26 27 29 31 31 31 33 33 34 35 35 36 35 33 33 33 32 32 34 35 36 36 36 36 37 38 39 42 43 44 46 48 50 51
5 6 7 9 11 13 16 18 19 20 22 24 25 28 29 30 31 33 34 35 35 36 35 34 33 33 33 32 33 34 33 33 34 35 37 38 40 41 43 45 47 49 50 52
3 5 6 7 8 11 12 15 18 19 20 22 25 27 27 29 30 31 32 33 33 33 33 33 33 33 33 32 32 33 33 33 34 35 36 38 40 41 43 45 47 49 50 52
1 2 5 6 8 9 10 12 15 17 19 21 24 25 26 27 27 27 29 29 29 29 28 29 30 29 30 30 31 32 32 32 33 35 36 37 39 41 43 44 46 47 49 50
2 3 3 4 6 8 8 10 13 15 18 19 21 23 24 25 25 26 26 26 28 26 26 25 25 26 27 27 28 29 29 30 31 33 34 36 38 40 41 42 44 45 46 48
4 4 4 5 5 7 8 10 13 15 17 19 21 22 23 23 24 24 24 23 24 25 24 23 24 25 25 26 27 27 28 29 31 32 33 35 36 38 39 40 41 42 44 45
5 6 6 6 7 8 9 11 12 13 15 17 18 19 19 20 21 22 22 21 21 22 22 22 23 25 26 26 27 28 29 30 31 32 33 34 35 36 37 37 38 39 41 42
6 7 7 7 8 9 10 11 12 13 14 15 16 17 18 19 20 20 20 21 21 22 22 24 25 24 25 26 27 27 28 28 29 30 31 32 32 33 33 34 35 36 37 37
7 8 8 9 9 10 11 11 12 13 14 13 14 15 16 17 18 18 19 19 20 21 21 22 22 23 23 24 25 25 26 27 28 28 28 28 29 29 29 30 31 32 32 31
8 9 10 10 11 12 12 12 13 13 13 13 13 13 14 15 15 16 17 18 19 19 19 19 20 21 21 22 23 24 25 25 26 26 26 26 26 26 26 27 27 27 27 27
9 10 10 12 12 13 13 13 13 13 13 13 13 13 12 12 13 14 15 15 15 16 16 17 17 19 20 21 22 23 23 24 23 23 23 23 23 22 22 23 23 23 23 23
9 10 11 12 13 14 14 14 14 14 14 13 13 12 12 12 12 13 12 13 13 14 14 15 17 18 19 20 21 22 22 21 20 20 20 20 19 19 20 20 20 19 19 19
11 11 12 13 14 15 15 15 14 14 14 13 12 12 11 11 10 10 10 10 11 12 12 14 15 16 17 18 19 19 18 18 18 18 18 18 17 17 17 17 17 17 17 17